Volver al catálogo

STARLINK-35041

ActivoComunicacionesVLEO
NORAD 66188·PAYLOAD·🇺🇸 United States

Lanzado Oct 26, 2025 desde Cape Canaveral Space Force Station

Loading…

Próximos Pases (próximas 24 horas)

TLE

ActualizadoSource: CelesTrak SupGP

Época: Sep 14, 2026, 21:04 UTC

1 66188C 25243M   26257.87826389 -.00007746  00000+0 -22891-3 0  2575
2 66188  53.1576  83.9936 0001199  84.5089 311.5113 15.34389105    15

Sigue STARLINK-35041 en tiempo real con AllMySat

Download on the App Store